sat.trackr.live / text

‹ back to catalog

STARLINK-36458

NORAD 67343 · 2026-003K

PAYLOAD ACTIVE UNKNOWN

§ Identity

Operator
Country
US
Launch date
2026-01-09
Launch site
AFETR
Launch vehicle
Mass (kg)
RCS (m²)

Purposes: comms

External: N2YO · Heavens-Above · Gunter

§ Orbital elements

Epoch: 2026-05-25T01:10:14.116800Z

Period
94.27 min
Inclination
42.9969°
Eccentricity
0.0001231
Mean motion
15.27595136 rev/d
Perigee alt
482.2 km
Apogee alt
483.8 km
Semi-major
6,861.1 km
B*
7.7811e-4
RAAN
155.6891°
Arg perigee
166.1939°
Mean anomaly
193.8946°
Rev number
2,050

§ Raw data

STARLINK-364581 67343U 26003K   26145.04877450  .00021221  00000+0  77811-3 0  99912 67343  42.9969 155.6891 0001231 166.1939 193.8946 15.27595136 20502

JSON: /api/v1/satellites/67343 · /tle

For live sub-satellite position, see the globe view (requires WebGL).

§ Visibility from observer

Set your observer location to see the next 7 days of passes ≥ 10°. The values pass through the URL so the page stays shareable.

No JS? Fill the form by hand. The geolocation button needs JavaScript.